Location: Lobos
(35.3000°S, 59.0940°W)
Time: 06:49:42
(UTC-03:00)

STARLINK-1719 - Pass Details

Date: 21 September 2020
Orbit: 532 x 534 km, 53.0° (Epoch: 22 October)

Event Time Altitude Azimuth Distance (km) Brightness Sun altitude
Rises 20:50:55 0° 222° (SW) 2,563 8.0 -24.6°
Reaches altitude 10° 20:53:05 10° 217° (SW) 1,723 6.9 -25.0°
Enters shadow 20:55:40 36° 194° (SSW) 837 4.7 -25.5°
